カタログに戻る

ONDOSAT-OWL-9

運用中アマチュア無線VLEO
NORAD 62395·PAYLOAD·🇲🇳 Mongolia
この衛星名は、まだ公式ソースで確認されていません。

打ち上げ Dec 21, 2024 から Vandenberg Space Force Base

Loading…

次のパス (今後24時間)

TLE

最新Source: Space-Track

元期: Sep 13, 2026, 23:23 UTC

1 62395U 24247U   26256.97470721  .00035114  00000-0  53619-3 0  9993
2 62395  44.9903 114.0210 0004445 189.7775 170.3032 15.53861620 97184

AllMySatでONDOSAT-OWL-9をリアルタイム追跡

Download on the App Store